Flag for U.S.A. Weather past 2 weeks in Jackson, Mississippi, U.S.A.

Now
71 °F

Fog.


Feels Like: 68 °F
Forecast: 69 / 89 °F
Wind: 3 mph from Southeast

Location: Hawkins Field

Current Time: Sep 20, 2014 at 5:34:46 AM

Latest Report: Sep 20, 2014 at 4:53 AM


Visibility: 6 mi

Pressure: 29.97 "Hg

Humidity: 90%

Dew point: 68 °F

Location of JacksonLocation

Historic Weather in Jackson — Graph

°F

Jackson temperature yesterday

Maximum temperature yesterday: 90 °F (at 4:53 PM)
Minimum temperature yesterday: 67 °F (at 4:53 AM)
Average temperature yesterday: 78 °F

Past Weeks' High & Low Weather Summary

 TemperatureHumidityPressure
High94 °F (Sep 9, 3:53 PM)94% (Sep 5, 9:53 PM)30.19 "Hg (Sep 5, 9:53 PM)
Low65 °F (Sep 14, 5:53 AM)43% (Sep 19, 4:53 PM)29.85 "Hg (Sep 18, 3:53 PM)
Average79 °F75%30.00 "Hg
* Reported Sep 5 3:53 AM — Sep 20 3:53 AM, Jackson, Weather by CustomWeather, © 2014

Note: Actual official high and low records may vary slightly from our data, if they occured in-between our weather recording intervals... More about our weather records

Advertising

Jackson weather history for previous 24 hours

 ConditionsComfort  
Time TempWeatherWind HumidityBarometerVisibility
3:53 AM
Sep 20
71 °FFog.No wind90%29.96 "Hg5 mi
2:53 AM71 °FClear.No wind90%29.95 "Hg7 mi
1:53 AM72 °FClear.No wind91%29.95 "Hg8 mi
12:53 AM73 °FClear.No wind88%29.96 "Hg8 mi
11:53 PM
Sep 19
74 °FClear.No wind85%29.97 "Hg10 mi
10:53 PM74 °FClear.No wind85%29.98 "Hg10 mi
9:53 PM76 °FClear.No wind80%29.97 "Hg10 mi
8:53 PM77 °FClear.No wind77%29.96 "Hg10 mi
7:53 PM80 °FSunny.3 mph69%29.95 "Hg10 mi
6:53 PM84 °FSunny.No wind59%29.93 "Hg10 mi
5:53 PM87 °FSunny.5 mph50%29.92 "Hg10 mi
4:53 PM90 °FSunny.No wind43%29.92 "Hg10 mi
3:53 PM89 °FBroken clouds.10 mph50%29.93 "Hg10 mi
2:53 PM88 °FBroken clouds.6 mph48%29.94 "Hg10 mi
1:53 PM89 °FPassing clouds.3 mph48%29.96 "Hg10 mi
12:53 PM86 °FPassing clouds.3 mph53%29.98 "Hg10 mi
11:53 AM84 °FSunny.6 mph61%29.98 "Hg10 mi
10:53 AM82 °FSunny.5 mph63%29.99 "Hg10 mi
9:53 AM79 °FSunny.5 mph67%29.99 "Hg10 mi
8:53 AM75 °FSunny.7 mph76%29.98 "Hg10 mi
7:53 AM71 °FSunny.5 mph84%29.97 "Hg10 mi
6:53 AM68 °FClear.3 mph90%29.96 "Hg10 mi
5:53 AM67 °FClear.5 mph93%29.92 "Hg8 mi
Weather by CustomWeather, © 2014

See weather overviewHow to use our weather pages